Location: Buch
(49.7331°N, 12.1098°E)
Time: 15:43:10
(UTC+00:00)

Cosmos 2218 Rocket - Pass Details

Date: 12 May 2021
Orbit: 957 x 1005 km, 82.9° (Epoch: 17 June)

Event Time Altitude Azimuth Distance (km) Brightness Sun altitude
Rises 22:34:05 0° 347° (NNW) 3,689 8.6 -21.5°
Reaches altitude 10° 22:36:39 10° 342° (NNW) 2,744 7.5 -21.5°
Maximum altitude 22:42:42 51° 269° (W) 1,228 4.5 -21.7°
Enters shadow 22:45:17 32° 213° (SSW) 1,623 4.7 -21.7°
